Regional Weather Roundup
Issued by NWS

Home | Current Version | Previous Version | Text Only | Print | Product List | Glossary Off
Versions: 1 2 3 4 5 6 7 8 9 10 11 12 13 14 15 16 17 18 19 20 21 22 23 24 25 26 27 28 29 30 31 32 33 34 35 36 37 38 39 40 41 42 43 44 45 46 47 48 49 50

000
ASUS45 KBOI 210310
RWRID

IDAHO REGIONAL WEATHER ROUNDUP
NATIONAL WEATHER SERVICE BOISE ID
800 PM MST FRI JAN 20 2017

NOTE: "FAIR" INDICATES FEW OR NO CLOUDS BELOW 12000 FEET
WITH NO SIGNIFICANT WEATHER AND/OR OBSTRUCTIONS TO VISIBILITY

IDZ012-014-210400-
SOUTHWEST IDAHO


CITY           SKY/WX    TMP DP  RH WIND       PRES   REMARKS
BOISE          CLOUDY    37  28  70 SE10      29.26R WCI  30
CALDWELL       MIX PCPN  34  32  92 SE16      29.27S WCI  24
MOUNTAIN HOME  CLOUDY    36  31  84 E18       29.27R WCI  25
$$

IDZ016-017-210400-
SOUTHCENTRAL IDAHO


CITY           SKY/WX    TMP DP  RH WIND       PRES   REMARKS
BURLEY         CLOUDY    34  27  75 NW5       29.27F WCI  30
JEROME         FLURRIES  33  27  78 E7        29.29S WCI  27
TWIN FALLS     CLOUDY    33  24  69 CALM      29.27S
$$

IDZ019>023-210400-
SOUTHEAST IDAHO


CITY           SKY/WX    TMP DP  RH WIND       PRES   REMARKS
IDAHO FALLS    CLOUDY    16  14  92 N6        29.35F WCI   7
POCATELLO      CLOUDY    26  22  84 CALM      29.34F
REXBURG        CLOUDY    14  13  95 E7        29.36F WCI   4
$$

IDZ006-010-011-018-031-032-210400-
CENTRAL IDAHO MOUNTAINS


CITY           SKY/WX    TMP DP  RH WIND       PRES   REMARKS
MCCALL         PTCLDY    21  18  88 CALM      29.18S
HAILEY         FLURRIES  30  25  80 CALM      29.31S
STANLEY          N/A     22  16  78 SE8       29.24S WCI  12
SALMON         CLOUDY    12  10  92 S3        29.35S
CHALLIS        MOCLDY    10   9  95 CALM      29.31F
$$

IDZ002-004-006-007-026-210400-
NORTHERN IDAHO


CITY           SKY/WX    TMP DP  RH WIND       PRES   REMARKS
LEWISTON       CLOUDY    36  30  79 S5        29.22S WCI  32
LOWELL           N/A     33  31  92 CALM      29.29S
COEUR D`ALENE  PTCLDY    35  30  82 N14       29.24F WCI  26
MULLAN PASS    CLOUDY    25  22  88 SE10G17   29.22F WCI  15
$$



USA.gov is the U.S. government's official web portal to all federal, state and local government web resources and services.